Powrót do katalogu

COSMOS 1579 COOLANT

LostLEO
NORAD 45516·DEBRIS·🇷🇺 Russia

Wystrzelony Jun 29, 1984 z Baikonur Cosmodrome

Loading…

Następne Przeloty (najbliższe 24 godziny)

TLE

NieaktualneSource: Space-Track

Epoka: May 6, 2024, 13:53 UTC

1 45516U 84069AM  24127.57914539  .00000070  00000-0  13210-3 0  9994
2 45516  65.0505 245.7019 0061871 286.3836  73.0430 13.87622740799812

Śledź COSMOS 1579 COOLANT w czasie rzeczywistym z AllMySat

Download on the App Store